When you browse on this site, cookies collect data to enhance your experience and personalize the content and advertising you see.
Visit our Privacy Policy to learn more. By continuing to use the site, you agree to this use of cookies and data.
  • In Switzerland
  • List of Countries
  • For 7 days
  • Water Temperature
  • Satellite Maps
  • Weather Map
  • Weather Widgets
  • user-avatar
    Login

    Hourly Weather Zdzierczyzna

    Today, 22 July, Monday

    Time Temperature Precipitation Wind Pressure Humidity
    00:00 +18°C° 0 mm 2 mps 751 mmHg 78%
    01:00 +18°C° 0 mm 2 mps 751 mmHg 82%
    02:00 +17°C° 0 mm 2 mps 752 mmHg 84%
    03:00 +17°C° 0 mm 2 mps 752 mmHg 87%
    04:00 +18°C° 0 mm 1 mps 752 mmHg 89%
    05:00 +19°C° 0 mm 1 mps 752 mmHg 85%
    06:00 +20°C° 0 mm 1 mps 752 mmHg 80%
    07:00 +21°C° 0 mm 1 mps 752 mmHg 75%
    08:00 +21°C° 0.1 mm 2 mps 753 mmHg 69%
    09:00 +24°C° 0.1 mm 2 mps 753 mmHg 63%
    10:00 +25°C° 0.1 mm 3 mps 753 mmHg 56%
    11:00 +25°C° 0.4 mm 3 mps 753 mmHg 57%
    12:00 +25°C° 0.4 mm 3 mps 752 mmHg 58%
    13:00 +25°C° 0.4 mm 4 mps 752 mmHg 59%
    14:00 +25°C° 0.1 mm 4 mps 752 mmHg 57%
    15:00 +26°C° 0.1 mm 4 mps 752 mmHg 56%
    16:00 +26°C° 0.1 mm 4 mps 752 mmHg 55%
    17:00 +25°C° 0 mm 4 mps 752 mmHg 59%
    18:00 +24°C° 0 mm 3 mps 751 mmHg 64%
    19:00 +23°C° 0 mm 2 mps 751 mmHg 69%
    20:00 +21°C° 0 mm 2 mps 752 mmHg 69%
    21:00 +20°C° 0 mm 2 mps 752 mmHg 70%
    22:00 +19°C° 0 mm 2 mps 752 mmHg 70%
    23:00 +20°C° 0 mm 1 mps 752 mmHg 69%

    Tomorrow, 23 July, Tuesday

    Time Temperature Precipitation Wind Pressure Humidity
    00:00 +20°C° 0 mm 1 mps 752 mmHg 67%
    01:00 +20°C° 0 mm 1 mps 752 mmHg 66%
    02:00 +20°C° 0 mm 1 mps 752 mmHg 70%
    03:00 +18°C° 0 mm 2 mps 752 mmHg 75%
    04:00 +18°C° 0 mm 3 mps 752 mmHg 79%
    05:00 +17°C° 0.1 mm 3 mps 752 mmHg 81%
    06:00 +17°C° 0.1 mm 2 mps 751 mmHg 84%
    07:00 +16°C° 0.1 mm 2 mps 751 mmHg 86%
    08:00 +17°C° 0 mm 2 mps 751 mmHg 85%
    09:00 +18°C° 0 mm 1 mps 752 mmHg 85%
    10:00 +18°C° 0 mm 1 mps 752 mmHg 84%
    11:00 +19°C° 0 mm 1 mps 751 mmHg 81%
    12:00 +20°C° 0 mm 1 mps 751 mmHg 79%
    13:00 +19°C° 0 mm 0 mps 751 mmHg 76%
    14:00 +21°C° 0 mm 1 mps 751 mmHg 76%
    15:00 +21°C° 0 mm 1 mps 751 mmHg 76%
    16:00 +22°C° 0 mm 1 mps 751 mmHg 76%
    17:00 +22°C° 0 mm 1 mps 751 mmHg 78%
    18:00 +21°C° 0 mm 1 mps 750 mmHg 81%
    19:00 +21°C° 0 mm 1 mps 750 mmHg 83%
    20:00 +20°C° 0 mm 1 mps 750 mmHg 84%
    21:00 +20°C° 0 mm 1 mps 750 mmHg 86%
    22:00 +19°C° 0 mm 1 mps 751 mmHg 88%
    23:00 +20°C° 0 mm 1 mps 751 mmHg 86%

    Day after tomorrow, 24 July, Wednesday

    Time Temperature Precipitation Wind Pressure Humidity
    00:00 +20°C° 0 mm 1 mps 750 mmHg 85%
    01:00 +20°C° 0 mm 1 mps 750 mmHg 84%
    02:00 +20°C° 0 mm 1 mps 750 mmHg 86%
    03:00 +19°C° 0 mm 1 mps 750 mmHg 89%
    04:00 +19°C° 0 mm 1 mps 750 mmHg 91%
    05:00 +20°C° 0 mm 1 mps 750 mmHg 87%
    06:00 +20°C° 0 mm 2 mps 750 mmHg 83%
    07:00 +21°C° 0 mm 2 mps 750 mmHg 79%
    08:00 +24°C° 0 mm 2 mps 750 mmHg 73%
    09:00 +25°C° 0 mm 3 mps 750 mmHg 67%
    10:00 +26°C° 0 mm 3 mps 750 mmHg 61%
    11:00 +27°C° 0 mm 3 mps 750 mmHg 58%
    12:00 +27°C° 0 mm 3 mps 750 mmHg 56%
    13:00 +28°C° 0 mm 3 mps 750 mmHg 54%
    14:00 +28°C° 0 mm 3 mps 750 mmHg 54%
    15:00 +28°C° 0 mm 3 mps 749 mmHg 54%
    16:00 +28°C° 0 mm 3 mps 749 mmHg 54%
    17:00 +27°C° 0 mm 2 mps 749 mmHg 58%
    18:00 +26°C° 0 mm 2 mps 749 mmHg 63%
    19:00 +25°C° 0 mm 2 mps 749 mmHg 68%
    20:00 +24°C° 0 mm 1 mps 750 mmHg 70%
    21:00 +23°C° 0 mm 1 mps 750 mmHg 72%
    22:00 +22°C° 0 mm 1 mps 750 mmHg 74%
    23:00 +22°C° 0 mm 1 mps 750 mmHg 76%

    25 July, Thursday

    Time Temperature Precipitation Wind Pressure Humidity
    00:00 +21°C° 0 mm 1 mps 750 mmHg 77%
    01:00 +21°C° 0 mm 1 mps 750 mmHg 79%
    02:00 +18°C° 0 mm 0 mps 750 mmHg 80%
    03:00 +18°C° 0 mm 0 mps 750 mmHg 82%
    04:00 +18°C° 0 mm 0 mps 750 mmHg 83%
    05:00 +19°C° 0 mm 0 mps 750 mmHg 78%
    06:00 +21°C° 0 mm 0 mps 751 mmHg 73%
    07:00 +22°C° 0 mm 0 mps 751 mmHg 67%
    08:00 +25°C° 0 mm 1 mps 751 mmHg 64%
    09:00 +27°C° 0 mm 1 mps 751 mmHg 60%
    10:00 +28°C° 0 mm 2 mps 751 mmHg 56%
    11:00 +28°C° 0 mm 2 mps 751 mmHg 54%
    12:00 +28°C° 0 mm 2 mps 751 mmHg 52%
    13:00 +29°C° 0 mm 2 mps 750 mmHg 50%
    14:00 +29°C° 0 mm 2 mps 750 mmHg 49%
    15:00 +29°C° 0 mm 2 mps 750 mmHg 48%
    16:00 +29°C° 0 mm 2 mps 750 mmHg 47%
    17:00 +28°C° 0 mm 2 mps 750 mmHg 52%
    18:00 +27°C° 0 mm 2 mps 750 mmHg 56%
    19:00 +26°C° 0 mm 2 mps 750 mmHg 61%
    20:00 +25°C° 0 mm 3 mps 750 mmHg 63%
    21:00 +24°C° 0 mm 3 mps 750 mmHg 65%
    22:00 +22°C° 0 mm 3 mps 750 mmHg 67%
    23:00 +21°C° 0 mm 3 mps 750 mmHg 70%

    26 July, Friday

    Time Temperature Precipitation Wind Pressure Humidity
    00:00 +21°C° 0 mm 3 mps 750 mmHg 73%
    01:00 +20°C° 0 mm 3 mps 750 mmHg 76%
    02:00 +19°C° 0 mm 3 mps 750 mmHg 78%
    03:00 +19°C° 0 mm 3 mps 750 mmHg 80%
    04:00 +19°C° 0 mm 3 mps 750 mmHg 81%
    05:00 +20°C° 0 mm 4 mps 750 mmHg 77%
    06:00 +21°C° 0 mm 4 mps 750 mmHg 72%
    07:00 +23°C° 0 mm 4 mps 750 mmHg 68%
    08:00 +25°C° 0 mm 5 mps 750 mmHg 62%
    09:00 +27°C° 0 mm 5 mps 749 mmHg 56%
    10:00 +28°C° 0 mm 6 mps 749 mmHg 49%
    11:00 +29°C° 0 mm 6 mps 749 mmHg 49%
    12:00 +29°C° 0 mm 6 mps 749 mmHg 48%
    13:00 +30°C° 0 mm 6 mps 749 mmHg 48%
    14:00 +30°C° 0 mm 6 mps 748 mmHg 48%
    15:00 +30°C° 0 mm 6 mps 748 mmHg 48%
    16:00 +32°C° 0 mm 6 mps 747 mmHg 48%
    17:00 +29°C° 0 mm 5 mps 747 mmHg 53%
    18:00 +28°C° 0 mm 4 mps 747 mmHg 59%
    19:00 +27°C° 0 mm 4 mps 747 mmHg 64%
    20:00 +26°C° 0 mm 4 mps 747 mmHg 67%
    21:00 +25°C° 0 mm 4 mps 747 mmHg 70%
    22:00 +23°C° 0 mm 4 mps 747 mmHg 73%
    23:00 +22°C° 0 mm 4 mps 747 mmHg 75%

    27 July, Saturday

    Time Temperature Precipitation Wind Pressure Humidity
    00:00 +22°C° 0 mm 4 mps 747 mmHg 78%
    01:00 +21°C° 0 mm 4 mps 747 mmHg 80%
    02:00 +21°C° 0 mm 4 mps 746 mmHg 82%
    03:00 +20°C° 0 mm 4 mps 746 mmHg 84%
    04:00 +20°C° 0 mm 5 mps 746 mmHg 86%
    05:00 +21°C° 0 mm 5 mps 746 mmHg 81%
    06:00 +22°C° 0 mm 5 mps 746 mmHg 75%
    07:00 +24°C° 0 mm 6 mps 745 mmHg 69%
    08:00 +26°C° 0 mm 6 mps 745 mmHg 63%
    09:00 +28°C° 0 mm 6 mps 745 mmHg 57%
    10:00 +29°C° 0 mm 6 mps 745 mmHg 51%
    11:00 +30°C° 0 mm 6 mps 745 mmHg 48%
    12:00 +32°C° 0 mm 6 mps 744 mmHg 45%
    13:00 +33°C° 0 mm 6 mps 744 mmHg 43%
    14:00 +33°C° 0 mm 6 mps 744 mmHg 43%
    15:00 +33°C° 0 mm 6 mps 743 mmHg 44%
    16:00 +33°C° 0 mm 6 mps 743 mmHg 44%
    17:00 +30°C° 0 mm 6 mps 743 mmHg 49%
    18:00 +29°C° 0 mm 5 mps 742 mmHg 54%
    19:00 +28°C° 0 mm 5 mps 742 mmHg 59%
    20:00 +26°C° 0.3 mm 5 mps 743 mmHg 64%
    21:00 +25°C° 0.3 mm 5 mps 743 mmHg 69%
    22:00 +23°C° 0.3 mm 4 mps 743 mmHg 74%
    23:00 +22°C° 0.3 mm 4 mps 743 mmHg 77%
    Show more